Weather History for Kenansville, NC

Change the Weather History Date:

Monday, March 31, 2014

  Actual Average (KGSB) Record (KGSB)
Temperature  
Mean Temperature 56 °F -  
Max Temperature 69 °F 68 °F 87 °F (1998)
Min Temperature 43 °F 47 °F 33 °F (2003)
Degree Days  
Heating Degree Days 9    
Growing Degree Days 6 (Base 50)    
Moisture  
Dew Point 28 °F    
Average Humidity 41    
Maximum Humidity 70    
Minimum Humidity 18    
Precipitation  
Precipitation 0.00 in - - ()
Sea Level Pressure  
Sea Level Pressure 30.04 in    
Wind  
Wind Speed 8 mph (NW)    
Max Wind Speed 17 mph    
Max Gust Speed 23 mph    
Visibility 10 miles    
Events      
Averages and records for this station are not official NWS values.
T = Trace of Precipitation, MM = Missing Value Source: NWS Daily Summary

Daily Weather History Graph

Daily Weather History Graph

Search for Another Location

Airport:

Trip Planner

Search our weather history database for the weather conditions in past years. The results will help you decide how hot, cold, wet, or windy it might be!

Date:

Astronomy

Mar. 31, 2014 Rise Set
Actual Time 7:00 AM EDT 7:32 PM EDT
Civil Twilight 6:34 AM EDT 7:57 PM EDT
Nautical Twilight 6:04 AM EDT 8:27 PM EDT
Astronomical Twilight 5:34 AM EDT 8:58 PM EDT
Moon 7:24 AM EDT 8:45 PM EDT
Length of Visible Light 13h 23m
Length of Day
12h 32m
New Moon, 1% of the Moon is Illuminated
Mar 31
New Moon
Apr 7
First Quarter
Apr 15
Full
Apr 22
Last Quarter
Apr 29
New

Hourly Weather History & Observations

Time (EDT) Temp. Windchill Dew Point Humidity Pressure Visibility Wind Dir Wind Speed Gust Speed Precip Events Conditions
12:15 AM 47.3 °F - 30.4 °F 52% 29.95 in 10.0 mi West 8.1 mph - N/A   Clear
12:35 AM 46.8 °F - 30.4 °F 53% 29.95 in 10.0 mi West 9.2 mph - N/A   Clear
12:55 AM 46.4 °F 42.4 °F 30.6 °F 54% 29.95 in 10.0 mi West 8.1 mph - N/A   Clear
1:15 AM 46.4 °F 42.4 °F 30.2 °F 53% 29.95 in 10.0 mi West 8.1 mph - N/A   Clear
1:35 AM 45.9 °F 41.7 °F 30.2 °F 54% 29.95 in 10.0 mi West 8.1 mph - N/A   Clear
1:55 AM 45.7 °F 41.5 °F 30.2 °F 55% 29.96 in 10.0 mi West 8.1 mph - N/A   Clear
2:15 AM 45.5 °F 41.3 °F 30.0 °F 55% 29.97 in 10.0 mi West 8.1 mph - N/A   Clear
2:35 AM 45.5 °F 41.8 °F 30.0 °F 55% 29.97 in 10.0 mi West 6.9 mph - N/A   Clear
2:55 AM 45.3 °F 42.3 °F 29.8 °F 55% 29.97 in 10.0 mi WNW 5.8 mph - N/A   Clear
3:15 AM 45.0 °F 40.1 °F 29.8 °F 55% 29.97 in 10.0 mi West 9.2 mph - N/A   Clear
3:35 AM 44.6 °F 40.2 °F 29.7 °F 56% 29.97 in 10.0 mi WNW 8.1 mph - N/A   Clear
3:55 AM 44.1 °F 39.5 °F 29.7 °F 57% 29.97 in 10.0 mi West 8.1 mph - N/A   Clear
4:15 AM 44.1 °F 39.5 °F 29.5 °F 57% 29.98 in 10.0 mi West 8.1 mph - N/A   Clear
4:35 AM 43.9 °F 39.3 °F 29.3 °F 57% 29.98 in 10.0 mi West 8.1 mph - N/A   Clear
4:55 AM 43.5 °F 39.4 °F 29.3 °F 57% 29.98 in 10.0 mi WNW 6.9 mph - N/A   Clear
5:15 AM 43.3 °F 39.9 °F 29.3 °F 58% 29.98 in 10.0 mi WNW 5.8 mph - N/A   Clear
5:35 AM 43.9 °F 38.8 °F 28.6 °F 55% 29.99 in 10.0 mi WNW 9.2 mph - N/A   Clear
5:55 AM 44.2 °F 38.8 °F 27.7 °F 52% 30.00 in 10.0 mi WNW 10.4 mph - N/A   Clear
6:15 AM 44.6 °F 38.4 °F 27.5 °F 51% 30.00 in 10.0 mi WNW 12.7 mph 18.4 mph N/A   Clear
6:35 AM 44.6 °F 39.2 °F 27.1 °F 50% 30.01 in 10.0 mi WNW 10.4 mph 17.3 mph N/A   Clear
6:55 AM 44.6 °F 38.8 °F 27.1 °F 50% 30.02 in 10.0 mi WNW 11.5 mph 16.1 mph N/A   Clear
7:15 AM 44.6 °F 39.7 °F 26.6 °F 49% 30.03 in 10.0 mi NW 9.2 mph - N/A   Clear
7:35 AM 45.3 °F 41.1 °F 27.1 °F 49% 30.04 in 10.0 mi NW 8.1 mph - N/A   Clear
7:55 AM 46.8 °F - 26.4 °F 45% 30.04 in 10.0 mi NW 9.2 mph 16.1 mph N/A   Clear
8:15 AM 48.2 °F - 25.3 °F 41% 30.05 in 10.0 mi NW 10.4 mph 16.1 mph N/A   Clear
8:35 AM 49.5 °F - 23.9 °F 37% 30.05 in 10.0 mi NW 8.1 mph 19.6 mph N/A   Clear
8:55 AM 50.7 °F - 24.1 °F 35% 30.06 in 10.0 mi NW 11.5 mph 21.9 mph N/A   Clear
9:15 AM 51.4 °F - 23.9 °F 34% 30.06 in 10.0 mi NNW 10.4 mph 17.3 mph N/A   Clear
9:35 AM 52.7 °F - 24.1 °F 33% 30.06 in 10.0 mi NNW 12.7 mph 18.4 mph N/A   Clear
9:55 AM 54.3 °F - 22.8 °F 29% 30.07 in 10.0 mi NNW 13.8 mph 17.3 mph N/A   Clear
10:15 AM 54.7 °F - 23.2 °F 29% 30.08 in 10.0 mi NNW 10.4 mph 18.4 mph N/A   Clear
10:35 AM 56.1 °F - 23.9 °F 29% 30.08 in 10.0 mi NNW 10.4 mph 16.1 mph N/A   Clear
10:55 AM 57.7 °F - 22.8 °F 26% 30.08 in 10.0 mi NW 17.3 mph 23.0 mph N/A   Clear
11:20 AM 58.1 °F - 23.5 °F 26% 30.08 in 10.0 mi North 15.0 mph 20.7 mph N/A   Clear
11:35 AM 58.3 °F - 24.4 °F 27% 30.08 in 10.0 mi NW 11.5 mph 17.3 mph N/A   Clear
11:55 AM 59.9 °F - 26.1 °F 27% 30.08 in 10.0 mi NNW 13.8 mph 18.4 mph N/A   Clear
12:15 PM 60.8 °F - 25.5 °F 26% 30.08 in 10.0 mi NNW 13.8 mph 19.6 mph N/A   Clear
12:35 PM 61.5 °F - 25.9 °F 26% 30.08 in 10.0 mi WNW 11.5 mph 18.4 mph N/A   Clear
12:55 PM 63.0 °F - 26.8 °F 25% 30.08 in 10.0 mi NW 12.7 mph 18.4 mph N/A   Clear
1:15 PM 64.0 °F - 25.0 °F 23% 30.07 in 10.0 mi NNW 11.5 mph 18.4 mph N/A   Clear
1:35 PM 64.4 °F - 23.9 °F 21% 30.07 in 10.0 mi North 9.2 mph - N/A   Clear
1:55 PM 64.8 °F - 22.8 °F 20% 30.07 in 10.0 mi North 11.5 mph 19.6 mph N/A   Clear
2:15 PM 65.8 °F - 22.1 °F 19% 30.06 in 10.0 mi NW 9.2 mph 18.4 mph N/A   Clear
2:35 PM 66.7 °F - 22.1 °F 18% 30.05 in 10.0 mi North 9.2 mph - N/A   Clear
2:55 PM 67.6 °F - 23.2 °F 19% 30.05 in 10.0 mi North 11.5 mph 16.1 mph N/A   Clear
3:15 PM 68.0 °F - 23.9 °F 19% 30.05 in 10.0 mi NW 11.5 mph - N/A   Clear
3:35 PM 68.2 °F - 25.3 °F 20% 30.05 in 10.0 mi West 9.2 mph - N/A   Clear
3:55 PM 68.0 °F - 24.4 °F 19% 30.05 in 10.0 mi NNW 6.9 mph 17.3 mph N/A   Clear
4:15 PM 69.1 °F - 24.4 °F 19% 30.05 in 10.0 mi West 10.4 mph 16.1 mph N/A   Clear
4:35 PM 68.9 °F - 23.7 °F 18% 30.04 in 10.0 mi NW 9.2 mph - N/A   Clear
4:55 PM 69.1 °F - 23.0 °F 18% 30.05 in 10.0 mi West 9.2 mph - N/A   Clear
5:15 PM 69.1 °F - 23.5 °F 18% 30.05 in 10.0 mi NW 6.9 mph - N/A   Clear
5:35 PM 69.3 °F - 23.4 °F 18% 30.05 in 10.0 mi NNW 8.1 mph 17.3 mph N/A   Clear
5:55 PM 69.1 °F - 23.0 °F 18% 30.04 in 10.0 mi WNW 6.9 mph - N/A   Clear
6:15 PM 68.7 °F - 24.8 °F 19% 30.04 in 10.0 mi NW 4.6 mph - N/A   Clear
6:35 PM 67.8 °F - 25.9 °F 21% 30.04 in 10.0 mi WNW 5.8 mph - N/A   Clear
6:55 PM 66.4 °F - 25.5 °F 21% 30.05 in 10.0 mi Calm Calm - N/A   Clear
7:15 PM 63.0 °F - 29.8 °F 29% 30.05 in 10.0 mi WSW 3.5 mph - N/A   Clear
7:35 PM 57.6 °F - 34.5 °F 42% 30.05 in 10.0 mi Calm Calm - N/A   Clear
7:55 PM 54.9 °F - 34.9 °F 47% 30.06 in 10.0 mi Calm Calm - N/A   Clear
8:15 PM 52.9 °F - 34.0 °F 49% 30.06 in 10.0 mi Calm Calm - N/A   Clear
8:35 PM 51.1 °F - 34.2 °F 52% 30.07 in 10.0 mi Calm Calm - N/A   Clear
8:55 PM 50.0 °F - 34.5 °F 55% 30.08 in 10.0 mi Calm Calm - N/A   Clear
9:15 PM 49.1 °F - 34.5 °F 57% 30.09 in 10.0 mi Calm Calm - N/A   Clear
9:35 PM 48.2 °F - 34.2 °F 58% 30.09 in 10.0 mi Calm Calm - N/A   Clear
9:55 PM 47.5 °F - 35.6 °F 63% 30.10 in 10.0 mi Calm Calm - N/A   Clear
10:15 PM 46.0 °F - 35.6 °F 67% 30.10 in 10.0 mi Calm Calm - N/A   Clear
10:35 PM 45.9 °F - 35.4 °F 67% 30.10 in 10.0 mi Calm Calm - N/A   Clear
10:55 PM 45.1 °F - 35.4 °F 69% 30.10 in 10.0 mi Calm Calm - N/A   Clear
11:15 PM 44.4 °F - 35.2 °F 70% 30.10 in 10.0 mi Calm Calm - N/A   Clear
11:35 PM 44.1 °F - 34.7 °F 70% 30.11 in 10.0 mi Calm Calm - N/A   Clear
11:55 PM 43.7 °F - 34.3 °F 70% 30.11 in 10.0 mi Calm Calm - N/A   Clear